Location: Podia
(1.5569°N, 32.3469°E)
Time: 14:05:07
(UTC+00:00)

Meteor 1-11 Rocket - Pass Details

Date: 01 June 2020
Orbit: 830 x 917 km, 81.2° (Epoch: 05 July)

Event Time Altitude Azimuth Distance (km) Brightness Sun altitude
Rises 16:36:44 0° 7° (N) 3,363 7.0 -10.5°
Reaches altitude 10° 16:39:14 10° 13° (NNE) 2,428 6.2 -11.1°
Maximum altitude 16:44:27 45° 85° (E) 1,110 4.0 -12.3°
Drops below altitude 10° 16:49:42 10° 157° (SSE) 2,443 5.7 -13.5°
Enters shadow 16:50:17 - 159° (SSE) 2,659 5.9 -13.6°
